Regional Weather Roundup
Issued by NWS Charleston, SC

Current Version | Previous Version | Text Only | Print | Product List | Glossary Off
Versions: 1 2 3 4 5 6 7 8 9 10 11 12 13 14 15 16 17 18 19 20 21 22 23 24 25 26 27 28 29 30 31 32 33 34 35 36 37 38 39 40 41 42 43 44 45 46 47 48 49 50

000
ASUS42 KCHS 062027
RWRCHS

REGIONAL WEATHER ROUNDUP
NATIONAL WEATHER SERVICE CHARLESTON SC
400 PM EDT WED MAY 06 2015

NOTE: "FAIR" INDICATES FEW OR NO CLOUDS BELOW 12,000 FEET WITH NO
SIGNIFICANT WEATHER AND/OR OBSTRUCTIONS TO VISIBILITY.

NOT ALL STATIONS ARE QUALITY CONTROLLED BY THE NATIONAL
WEATHER SERVICE. USE DATA WITH CAUTION...ESPECIALLY
DEWPOINT OBSERVATIONS.

SCZ027-030-031-034>040-042>050-062100-
...SOUTHEAST SOUTH CAROLINA...

CITY           SKY/WX    TMP DP  RH WIND       PRES   REMARKS
N CHARLESTON   MOSUNNY   81  56  42 NE14G20   30.10F
WATERFRONT PRK   N/A     75  63  64 E15G22      N/A
MOUNT PLEASANT FAIR      77  61  57 MISG      30.10F
PINOPOLIS      NOT AVBL
MONCKS CORNER  FAIR      81  54  39 NE6       30.10F
SUMMERVILLE    FAIR      81  59  47 NE5       30.10F
BEAUFORT MCAS  PTSUNNY   79  64  60 SE8G18    30.09F
BEAUFORT ARPT  MOCLDY    77  63  61 E15G21    30.09F
HILTON HEAD IS PTSUNNY   73  63  68 E9G18     30.11F
WALTERBORO     PTCLDY    81  54  39 E13       30.10F
ALLENDALE      FAIR      79  52  38 NE8       30.11S

...SOUTHERN MIDLANDS AND PEE DEE...

CITY           SKY/WX    TMP DP  RH WIND       PRES   REMARKS
GEORGETOWN     NOT AVBL
KINGSTREE      NOT AVBL
ORANGEBURG     CLOUDY    79  46  31 E8        30.11F
BARNWELL       FAIR      81  52  36 E6        30.12F
AIKEN          MOCLDY    79  48  34 NE8       30.15F
MANNING        FAIR      81  48  32 NE8       30.11F
COLUMBIA       CLOUDY    83  50  31 NE8       30.11F
SUMTER         MOSUNNY   84  39  20 NE13G21   30.10F
FLORENCE       MOSUNNY   82  45  27 E9G20     30.13F
MYRTLE BEACH   MOSUNNY   75  59  57 E18       30.15F
N MYRTLE BEACH CLOUDY    74  60  61 E15       30.13F

$$

GAZ063-065-086>088-099>101-113>116-118-119-134>141-150-062100-
...SOUTHEAST GEORGIA...

CITY           SKY/WX    TMP DP  RH WIND       PRES   REMARKS
SAVANNAH ARPT  PTSUNNY   77  59  53 NE8       30.10F
HUNTER AAF     PTSUNNY   78  64  62 E15       30.07F
FORT STEWART   PTSUNNY   78  59  50 NE7       30.07F
STATESBORO       N/A     80  55  42 N5        30.10F
SYLVANIA       MOCLDY    80  58  45 NE6       30.11F
CLAXTON        FAIR      79  61  53 N8        30.09F

...CSRA...CENTRAL AND FAR SOUTHEAST GEORGIA...

CITY           SKY/WX    TMP DP  RH WIND       PRES   REMARKS
THOMSON        SUNNY     82  56  39 E9        30.16F
AUGUSTA-BUSH   MOSUNNY   83  53  35 NE7       30.10F
AUGUSTA-DANIEL MOSUNNY   83  52  34 N8        30.12F
SWAINSBORO     FAIR      82  30  15 NE5       30.11F
VIDALIA        MOSUNNY   81  59  47 E6        30.10F
EASTMAN        FAIR      83  55  38 E3        30.12F
HAZLEHURST     FAIR      82  55  39 NE3       30.08F
ALMA           MOSUNNY   79  61  53 NE6       30.09F
WAYCROSS       CLOUDY    81  65  57 E13       30.09F
JESUP          CLOUDY    77  66  69 NE3       30.10F
BAXLEY         CLOUDY    81  61  50 E9        30.09F
BRUNSWICK      CLOUDY    79  63  57 E17       30.09F
SAINT SIMONS   CLOUDY    75  63  66 NE17G23   30.09F

$$

SCZ027-028-034-036>038-045-046-048>050-GAZ119-141-062100-
...LAKE AND SUPPLEMENTAL COASTAL OBSERVATIONS...

STATION/POSITION TIME  TEMP    WIND        PRES    WAVE   SWELL
                       AIR SEA DIR/SP/G            HT/PER HT/PER/DIR
                 (UTC) (F)     (DEG/KT/KT) (MB)    (FT/S) (FT/S/D)
UPR LAKE MARION  NOT AVBL
WINYAH BAY       1945   72      70/ 15     1019.0F
LAKE MURRAY      1900   78      30/  3/  5 1020.0F
ACE BASIN NERRS  1945   79      70/  5     1019.0
FORT PULASKI     1906   72 71   60/ 17/ 23 1020.3F
SAPELO ISLAND    2000   76      50/ 12     1019.0S

$$

ANZ835-935-AMZ111-154-330-350-352-354-370-450-454-472-062100-
...C-MAN AND BUOY OBSERVATIONS...

STATION/POSITION TIME  TEMP    WIND        PRES    WAVE   SWELL
                       AIR SEA DIR/SP/G            HT/PER HT/PER/DIR
                 (UTC) (F)     (DEG/KT/KT) (MB)    (FT/S) (FT/S/D)
BUOY 41004       1950   73 73   40/ 21/ 25 1017.8F   8/ 8
BUOY 41008       1950   71 70   40/ 17/ 21 1018.7F   6/ 8   3/100/ 8
FOLLY BEACH CMAN 2000   72      60/ 21/ 24 1019.4F
CAPERS NEARSHORE 1908   71      50/ 19/ 25 1020.3F
FRIPP NEARSHORE  1900   73      70/ 19/ 21 1019.5F


STATION/POSITION TIME  TEMP    WIND        PRES    WAVE   SWELL
                       AIR SEA DIR/SP/G            HT/PER HT/PER/DIR
                 (UTC) (F)     (DEG/KT/KT) (MB)    (FT/S) (FT/S/D)
5E ST. MARYS GA  1921      72                N/A     5/ 9
FRYING PAN BUOY  1950   73 71   80/ 17/ 19 1020.0F   6/ 8
BUOY 41025       1950   71 74  100/ 12/ 14 1021.9F   4/ 6   3/130/ 6
CAPE LOOKOUT NC  2000   69      80/  9/ 10 1020.8F
BUOY 41002       1950   68 70   90/ 23/ 33 1016.3F  10/ 8   2/110/11
BUOY 41010       1920   71 78  350/ 21/ 25 1014.3F
ST AUGUSTINE FL  2000   71 73  360/ 19/ 20 1018.5F


$$


USA.gov is the U.S. government's official web portal to all federal, state and local government web resources and services.